Time,TemperatureF,DewpointF,PressureIn,WindDirection,WindDirectionDegrees,WindSpeedMPH,WindSpeedGustMPH,Humidity,HourlyPrecipIn,Conditions,Clouds,dailyrainin,SoftwareType,DateUTC
2013-05-21 00:00:00,42.0,42.0,-100.00,North,-999,-999.0,-999.0,101,-99.99,,,-99.99,,2013-05-21 07:00:00,
2013-05-21 00:52:00,42.0,42.0,-100.00,North,-999,-999.0,-999.0,101,-99.99,,,-99.99,,2013-05-21 07:52:00,
2013-05-21 01:00:00,40.0,40.0,-100.00,West,278,0.0,1.0,101,-99.99,,,-99.99,,2013-05-21 08:00:00,
2013-05-21 01:52:00,40.0,40.0,-100.00,North,-999,-999.0,-999.0,101,-99.99,,,-99.99,,2013-05-21 08:52:00,
2013-05-21 02:00:00,38.0,38.0,-100.00,SE,140,1.0,3.0,101,-99.99,,,-99.99,,2013-05-21 09:00:00,
2013-05-21 02:53:00,38.0,38.0,-100.00,SE,140,1.0,3.0,101,-99.99,,,-99.99,,2013-05-21 09:53:00,
2013-05-21 03:00:00,38.0,38.0,-100.00,SSE,159,1.0,3.0,102,-99.99,,,0.00,,2013-05-21 10:00:00,
2013-05-21 04:00:00,37.0,37.0,-100.00,North,2,0.0,2.0,102,-99.99,,,0.00,,2013-05-21 11:00:00,
2013-05-21 05:00:00,35.0,35.0,-100.00,SSW,193,1.0,3.0,102,-99.99,,,-99.99,,2013-05-21 12:00:00,
2013-05-21 06:00:00,34.0,34.0,-100.00,SSW,199,1.0,2.0,103,-99.99,,,0.00,,2013-05-21 13:00:00,
2013-05-21 09:00:00,35.0,35.0,-100.00,WSW,242,1.0,2.0,103,-99.99,,,0.01,,2013-05-21 16:00:00,
2013-05-21 11:00:00,37.0,37.0,-100.00,WNW,294,1.0,2.0,103,-99.99,,,0.02,,2013-05-21 18:00:00,
2013-05-21 11:52:00,37.0,37.0,-100.00,WNW,294,1.0,2.0,103,-99.99,,,0.02,,2013-05-21 18:52:00,
2013-05-21 12:00:00,37.0,37.0,-100.00,SSW,194,1.0,2.0,102,-99.99,,,0.02,,2013-05-21 19:00:00,
2013-05-21 12:52:00,37.0,37.0,-100.00,SSW,194,1.0,2.0,102,-99.99,,,0.02,,2013-05-21 19:52:00,
2013-05-21 13:00:00,37.0,37.0,-100.00,SSW,211,1.0,2.0,102,-99.99,,,0.03,,2013-05-21 20:00:00,
2013-05-21 13:52:00,37.0,37.0,-100.00,SSW,211,1.0,2.0,102,-99.99,,,0.03,,2013-05-21 20:52:00,
2013-05-21 14:00:00,40.0,40.0,-100.00,SSE,162,1.0,2.0,102,-99.99,,,0.03,,2013-05-21 21:00:00,
2013-05-21 14:54:00,40.0,40.0,-100.00,SSE,162,1.0,2.0,102,-99.99,,,0.03,,2013-05-21 21:54:00,
2013-05-21 15:00:00,36.0,36.0,-100.00,South,169,1.0,2.0,102,-99.99,,,-99.99,,2013-05-21 22:00:00,
2013-05-21 15:53:00,36.0,36.0,-100.00,South,169,1.0,2.0,102,-99.99,,,-99.99,,2013-05-21 22:53:00,
2013-05-21 16:00:00,38.0,38.0,-100.00,SSE,165,1.0,2.0,102,-99.99,,,0.03,,2013-05-21 23:00:00,
2013-05-21 16:52:00,38.0,38.0,-100.00,SSE,165,1.0,2.0,102,-99.99,,,0.03,,2013-05-21 23:52:00,
2013-05-21 17:00:00,34.0,34.0,-100.00,SSW,212,1.0,2.0,102,-99.99,,,0.04,,2013-05-22 00:00:00,
2013-05-21 17:52:00,34.0,34.0,-100.00,SSW,212,1.0,2.0,102,-99.99,,,0.04,,2013-05-22 00:52:00,
2013-05-21 18:00:00,35.0,35.0,-100.00,North,10,1.0,2.0,103,-99.99,,,0.04,,2013-05-22 01:00:00,
2013-05-21 18:52:00,35.0,35.0,-100.00,North,10,1.0,2.0,103,-99.99,,,0.04,,2013-05-22 01:52:00,
2013-05-21 19:00:00,35.0,35.0,-100.00,SSW,196,1.0,3.0,103,-99.99,,,0.04,,2013-05-22 02:00:00,
2013-05-21 19:52:00,35.0,35.0,-100.00,SSW,196,1.0,3.0,103,-99.99,,,0.04,,2013-05-22 02:52:00,
2013-05-21 20:00:00,35.0,35.0,-100.00,SW,224,2.0,3.0,103,-99.99,,,0.04,,2013-05-22 03:00:00,
2013-05-21 20:53:00,35.0,35.0,-100.00,SW,224,2.0,3.0,103,-99.99,,,0.04,,2013-05-22 03:53:00,
2013-05-21 21:00:00,34.0,34.0,-100.00,South,171,1.0,3.0,103,-99.99,,,0.04,,2013-05-22 04:00:00,
2013-05-21 21:53:00,34.0,34.0,-100.00,South,171,1.0,3.0,103,-99.99,,,0.04,,2013-05-22 04:53:00,
2013-05-21 22:00:00,33.0,33.0,-100.00,SSW,207,1.0,2.0,103,-99.99,,,0.04,,2013-05-22 05:00:00,
2013-05-21 22:52:00,33.0,33.0,-100.00,SSW,207,1.0,2.0,103,-99.99,,,0.04,,2013-05-22 05:52:00,
2013-05-21 23:00:00,33.0,33.0,-100.00,SW,231,1.0,3.0,103,-99.99,,,0.04,,2013-05-22 06:00:00,
2013-05-21 23:52:00,33.0,33.0,-100.00,SW,231,1.0,3.0,103,-99.99,,,0.04,,2013-05-22 06:52:00,